NN5DX-13 Weather Reports


Display with metric or nautical units.
time (UTC)temp
F
wind
direction
speed
MPH
gust
MPH
rain 1hr
in
rain 24hr
in
rain mn
in
humidity
%
barometer
mb
20260510142517 83 0.0 0.0 0.00 0.00 0.00 31 1012.4
20260510142017 82 0.0 5.0 0.00 0.00 0.00 32 1012.3
20260510141518 82 0.0 2.0 0.00 0.00 0.00 32 1012.3
20260510141017 81 0.0 0.0 0.00 0.00 0.00 33 1012.8
20260510140517 81 0.0 0.0 0.00 0.00 0.00 35 1012.7
20260510140017 80 0.0 0.0 0.00 0.00 0.00 36 1012.5
20260510135517 79 0.0 0.0 0.00 0.00 0.00 38 1012.5
20260510135017 78 0.0 0.0 0.00 0.00 0.00 39 1012.3
20260510134517 77 0.0 0.0 0.00 0.00 0.00 40 1012.2
20260510134017 76 0.0 0.0 0.00 0.00 0.00 42 1012.4
20260510133517 75 0.0 0.0 0.00 0.00 0.00 46 1012.3
20260510133017 75 0.0 0.0 0.00 0.00 0.00 49 1012.3
20260510132517 75 0.0 0.0 0.00 0.00 0.00 51 1012.3
20260510132018 74 0.0 0.0 0.00 0.00 0.00 54 1012.3
20260510131517 73 0.0 0.0 0.00 0.00 0.00 56 1012.0
20260510131017 72 0.0 0.0 0.00 0.00 0.00 56 1012.3
20260510130517 71 0.0 0.0 0.00 0.00 0.00 58 1012.1
20260510130017 70 0.0 2.0 0.00 0.00 0.00 59 1012.0
20260510125517 69 0.0 0.0 0.00 0.00 0.00 60 1011.7
20260510125018 68 0.0 0.0 0.00 0.00 0.00 61 1011.7
20260510124518 68 0.0 0.0 0.00 0.00 0.00 63 1011.4
20260510124017 67 0.0 0.0 0.00 0.00 0.00 64 1011.6
20260510123521 66 0.0 0.0 0.00 0.00 0.00 66 1011.4
20260510123017 64 180 1.0 5.0 0.00 0.00 0.00 68 1011.1
20260510122517 64 0.0 1.0 0.00 0.00 0.00 68 1011.1
20260510122017 64 0.0 0.0 0.00 0.00 0.00 67 1011.0
20260510121517 64 0.0 0.0 0.00 0.00 0.00 67 1011.0
20260510121017 64 0.0 0.0 0.00 0.00 0.00 68 1010.9
20260510120517 64 0.0 0.0 0.00 0.00 0.00 68 1010.8
20260510120018 63 0.0 0.0 0.00 0.00 0.00 68 1010.9
20260510115517 63 0.0 0.0 0.00 0.00 0.00 69 1010.9
20260510115017 63 0.0 0.0 0.00 0.00 0.00 69 1010.8
20260510114517 64 0.0 0.0 0.00 0.00 0.00 68 1010.8
20260510114017 64 0.0 0.0 0.00 0.00 0.00 68 1010.8
20260510113517 64 0.0 0.0 0.00 0.00 0.00 67 1010.8
20260510113017 65 0.0 0.0 0.00 0.00 0.00 66 1011.1
20260510112518 65 0.0 0.0 0.00 0.00 0.00 66 1011.1
20260510112018 65 0.0 0.0 0.00 0.00 0.00 66 1011.1
20260510111517 65 0.0 0.0 0.00 0.00 0.00 67 1011.0
20260510111017 65 0.0 0.0 0.00 0.00 0.00 68 1010.9
20260510110517 65 0.0 0.0 0.00 0.00 0.00 67 1010.9
20260510110017 65 0.0 0.0 0.00 0.00 0.00 66 1010.9
20260510105517 66 0.0 0.0 0.00 0.00 0.00 66 1010.9
20260510105017 65 0.0 0.0 0.00 0.00 0.00 66 1010.6
20260510104517 66 0.0 0.0 0.00 0.00 0.00 65 1010.8
20260510104017 66 0.0 0.0 0.00 0.00 0.00 64 1010.9
20260510103517 67 0.0 0.0 0.00 0.00 0.00 63 1010.8
20260510103018 67 0.0 0.0 0.00 0.00 0.00 63 1010.8
20260510102517 66 0.0 0.0 0.00 0.00 0.00 64 1010.8
20260510102017 66 0.0 0.0 0.00 0.00 0.00 63 1010.9
20260510101517 67 0.0 0.0 0.00 0.00 0.00 62 1010.9
20260510101017 67 0.0 0.0 0.00 0.00 0.00 61 1011.1
20260510100517 68 0.0 0.0 0.00 0.00 0.00 61 1011.1
20260510100017 68 0.0 0.0 0.00 0.00 0.00 61 1011.2
20260510095517 68 0.0 0.0 0.00 0.00 0.00 61 1011.1
20260510095017 68 0.0 0.0 0.00 0.00 0.00 60 1011.0
20260510094517 68 0.0 0.0 0.00 0.00 0.00 60 1010.9
20260510094017 69 0.0 0.0 0.00 0.00 0.00 60 1010.8
20260510093518 69 0.0 0.0 0.00 0.00 0.00 61 1011.0
20260510093017 68 0.0 0.0 0.00 0.00 0.00 61 1010.9
20260510092517 69 0.0 0.0 0.00 0.00 0.00 61 1010.8
20260510092017 69 0.0 0.0 0.00 0.00 0.00 62 1010.8
20260510091517 70 0.0 0.0 0.00 0.00 0.00 62 1010.9
20260510091018 70 0.0 0.0 0.00 0.00 0.00 61 1010.9
20260510090517 70 0.0 0.0 0.00 0.00 0.00 61 1010.9
20260510090016 71 0.0 0.0 0.00 0.00 0.00 60 1011.0
20260510085517 71 0.0 0.0 0.00 0.00 0.00 60 1011.0
20260510085017 71 0.0 0.0 0.00 0.00 0.00 60 1011.0
20260510084517 71 180 1.0 6.0 0.00 0.00 0.00 60 1011.1
20260510084017 71 180 3.0 10.0 0.00 0.00 0.00 60 1010.9
20260510083517 71 0.0 1.0 0.00 0.00 0.00 60 1010.9
20260510083017 72 0.0 3.0 0.00 0.00 0.00 60 1011.0
20260510082517 72 0.0 1.0 0.00 0.00 0.00 59 1011.0
20260510082017 72 0.0 4.0 0.00 0.00 0.00 59 1011.2
20260510081517 72 0.0 2.0 0.00 0.00 0.00 59 1011.2
20260510081017 72 180 2.0 10.0 0.00 0.00 0.00 58 1011.4
20260510080517 73 180 4.0 11.0 0.00 0.00 0.00 58 1011.4
20260510080016 73 180 6.0 12.0 0.00 0.00 0.00 57 1011.6
20260510075517 73 180 5.0 11.0 0.00 0.00 0.00 57 1011.7
20260510075016 73 180 6.0 11.0 0.00 0.00 0.00 56 1011.8
20260510074516 73 180 1.0 13.0 0.00 0.00 0.00 56 1011.8
20260510074016 73 180 6.0 11.0 0.00 0.00 0.00 55 1011.8
20260510073516 73 180 6.0 11.0 0.00 0.00 0.00 55 1011.9
20260510073017 73 180 4.0 13.0 0.00 0.00 0.00 55 1012.0
20260510072518 73 180 5.0 11.0 0.00 0.00 0.00 54 1012.1
20260510072017 73 203 6.0 13.0 0.00 0.00 0.00 54 1012.1
20260510071518 73 203 4.0 10.0 0.00 0.00 0.00 53 1012.2
20260510071016 74 225 3.0 12.0 0.00 0.00 0.00 53 1012.2
20260510070516 74 203 4.0 11.0 0.00 0.00 0.00 52 1012.4
20260510070017 74 180 3.0 10.0 0.00 0.00 0.00 52 1012.4
20260510065517 74 203 3.0 11.0 0.00 0.00 0.00 51 1012.4
20260510065017 74 180 3.0 9.0 0.00 0.00 0.00 51 1012.4
20260510064516 74 203 2.0 12.0 0.00 0.00 0.00 50 1012.5
20260510064018 74 180 3.0 12.0 0.00 0.00 0.00 50 1012.3
20260510063517 74 203 3.0 11.0 0.00 0.00 0.00 49 1012.4
20260510063016 75 203 1.0 11.0 0.00 0.00 0.00 49 1012.5
20260510062516 75 180 3.0 13.0 0.00 0.00 0.00 48 1012.4
20260510062017 75 203 4.0 11.0 0.00 0.00 0.00 48 1012.6
20260510061517 75 180 2.0 11.0 0.00 0.00 0.00 47 1012.7
20260510061017 75 158 1.0 7.0 0.00 0.00 0.00 46 1012.5
20260510060517 75 180 1.0 11.0 0.00 0.00 0.00 45 1012.4
20260510060017 75 180 5.0 11.0 0.00 0.00 0.00 45 1012.5
20260510055517 75 180 3.0 11.0 0.00 0.00 0.00 43 1012.5
20260510055017 75 180 2.0 12.0 0.00 0.00 0.00 42 1012.6
20260510054517 75 203 1.0 12.0 0.00 0.00 0.00 41 1012.5
20260510054018 75 0.0 2.0 0.00 0.00 0.00 40 1012.4
20260510053517 75 225 1.0 11.0 0.00 0.00 0.00 39 1012.4
20260510053017 75 180 1.0 11.0 0.00 0.00 0.00 38 1012.3
20260510052517 75 180 3.0 10.0 0.00 0.00 0.00 37 1012.3
20260510052017 75 180 1.0 8.0 0.00 0.00 0.00 36 1012.3
20260510051517 75 180 1.0 8.0 0.00 0.00 0.00 35 1012.4
20260510051017 75 180 1.0 6.0 0.00 0.00 0.00 35 1012.4
20260510050517 75 0.0 6.0 0.00 0.00 0.00 34 1012.4
20260510050018 75 0.0 2.0 0.00 0.00 0.00 32 1012.4
20260510045516 75 0.0 1.0 0.00 0.00 0.00 32 1012.4
20260510045016 75 0.0 1.0 0.00 0.00 0.00 31 1012.5
20260510044516 75 0.0 1.0 0.00 0.00 0.00 30 1012.3
20260510044016 75 0.0 0.0 0.00 0.00 0.00 30 1012.2
20260510043516 75 0.0 1.0 0.00 0.00 0.00 29 1012.3
20260510043016 75 0.0 1.0 0.00 0.00 0.00 29 1012.2
20260510042515 75 0.0 0.0 0.00 0.00 0.00 29 1012.2
20260510042015 75 0.0 1.0 0.00 0.00 0.00 28 1012.1
20260510041515 76 158 1.0 5.0 0.00 0.00 0.00 28 1012.3
20260510041015 76 0.0 0.0 0.00 0.00 0.00 28 1012.1
20260510040515 76 0.0 1.0 0.00 0.00 0.00 27 1012.1
20260510040015 76 0.0 4.0 0.00 0.00 0.00 27 1012.1
20260510035516 76 0.0 0.0 0.00 0.00 0.00 27 1012.1
20260510035016 76 180 1.0 11.0 0.00 0.00 0.00 28 1012.0
20260510034533 76 203 1.0 9.0 0.00 0.00 0.00 28 1011.9
20260510034020 76 0.0 1.0 0.00 0.00 0.00 28 1011.5
20260510033515 76 180 1.0 8.0 0.00 0.00 0.00 28 1011.5
20260510033016 76 0.0 2.0 0.00 0.00 0.00 28 1011.5
20260510032516 76 180 1.0 6.0 0.00 0.00 0.00 28 1011.4
20260510032015 76 0.0 0.0 0.00 0.00 0.00 28 1011.3
20260510031516 76 0.0 0.0 0.00 0.00 0.00 28 1011.3
20260510031016 76 0.0 0.0 0.00 0.00 0.00 27 1011.3
20260510030518 76 0.0 0.0 0.00 0.00 0.00 27 1011.2
20260510030016 77 0.0 0.0 0.00 0.00 0.00 27 1011.3
20260510025518 77 0.0 0.0 0.00 0.00 0.00 27 1011.1
20260510025018 78 0.0 0.0 0.00 0.00 0.00 27 1011.0
20260510024518 78 0.0 0.0 0.00 0.00 0.00 26 1011.1
20260510024018 79 0.0 0.0 0.00 0.00 0.00 26 1010.8
20260510023518 79 0.0 0.0 0.00 0.00 0.00 25 1010.6
20260510023018 80 0.0 0.0 0.00 0.00 0.00 24 1010.8
20260510022517 80 0.0 0.0 0.00 0.00 0.00 24 1010.7
20260510022018 81 0.0 0.0 0.00 0.00 0.00 23 1010.6
20260510021517 81 0.0 0.0 0.00 0.00 0.00 23 1010.6
20260510021018 82 0.0 0.0 0.00 0.00 0.00 22 1010.0
20260510020518 82 0.0 0.0 0.00 0.00 0.00 22 1009.9
20260510020017 83 0.0 0.0 0.00 0.00 0.00 21 1010.0
20260510015517 83 0.0 0.0 0.00 0.00 0.00 21 1010.0
20260510015018 84 0.0 0.0 0.00 0.00 0.00 21 1009.9
20260510014517 85 0.0 0.0 0.00 0.00 0.00 20 1009.9
20260510014018 85 0.0 0.0 0.00 0.00 0.00 20 1009.1
20260510013517 86 0.0 0.0 0.00 0.00 0.00 19 1009.3
20260510013018 87 0.0 0.0 0.00 0.00 0.00 19 1009.2
20260510012517 87 0.0 0.0 0.00 0.00 0.00 19 1009.2
20260510012017 88 158 1.0 4.0 0.00 0.00 0.00 18 1009.4
20260510011517 88 0.0 0.0 0.00 0.00 0.00 18 1009.3
20260510011017 89 0.0 0.0 0.00 0.00 0.00 17 1008.8
20260510010518 90 0.0 0.0 0.00 0.00 0.00 16 1008.9
20260510010021 90 0.0 0.0 0.00 0.00 0.00 16 1008.8
20260510005518 91 158 1.0 8.0 0.00 0.00 0.00 16 1008.9
20260510005017 92 0.0 0.0 0.00 0.00 0.00 15 1008.9
20260510004519 92 0.0 0.0 0.00 0.00 0.00 14 1008.9
20260510004020 92 135 2.0 6.0 0.00 0.00 0.00 14 1008.6
20260510003518 92 0.0 0.0 0.00 0.00 0.00 14 1008.5
20260510003017 92 0.0 0.0 0.00 0.00 0.00 13 1008.5
20260510002519 92 135 2.0 8.0 0.00 0.00 0.00 13 1008.4
20260510002017 93 135 1.0 7.0 0.00 0.00 0.00 13 1008.5
20260510001518 93 135 1.0 4.0 0.00 0.00 0.00 12 1008.8
20260510001018 94 158 1.0 5.0 0.00 0.00 0.00 12 1008.9
20260510000519 94 0.0 4.0 0.00 0.00 0.00 12 1008.8
20260510000018 93 113 1.0 5.0 0.00 0.00 0.00 11 1008.8
20260509235518 93 68 1.0 5.0 0.00 0.00 0.00 12 1008.8
20260509235017 93 0.0 3.0 0.00 0.00 0.00 12 1008.9
20260509234518 94 135 2.0 6.0 0.00 0.00 0.00 11 1009.0
20260509234018 95 180 2.0 4.0 0.00 0.00 0.00 11 1009.4
20260509233518 94 0.0 1.0 0.00 0.00 0.00 12 1009.4
20260509233017 94 0.0 0.0 0.00 0.00 0.00 12 1009.4
20260509232517 94 0.0 0.0 0.00 0.00 0.00 12 1009.3
20260509232017 93 0.0 1.0 0.00 0.00 0.00 13 1009.3
20260509231517 93 0.0 2.0 0.00 0.00 0.00 12 1009.2
20260509231017 93 90 3.0 10.0 0.00 0.00 0.00 13 1009.6
20260509230517 94 113 4.0 11.0 0.00 0.00 0.00 12 1009.5
20260509230018 95 0.0 0.0 0.00 0.00 0.00 11 1009.8
20260509225517 95 0.0 0.0 0.00 0.00 0.00 10 1009.8
20260509225018 94 0.0 0.0 0.00 0.00 0.00 12 1009.7
20260509224522 94 0.0 0.0 0.00 0.00 0.00 11 1009.7
20260509224017 95 0.0 1.0 0.00 0.00 0.00 12 1009.6
20260509223518 95 0.0 0.0 0.00 0.00 0.00 12 1009.6
20260509223025 95 0.0 4.0 0.00 0.00 0.00 11 1009.6
20260509222520 95 135 2.0 7.0 0.00 0.00 0.00 12 1009.6
20260509222022 95 0.0 1.0 0.00 0.00 0.00 12 1009.7
20260509221519 96 0.0 0.0 0.00 0.00 0.00 12 1009.8
20260509221018 96 0.0 1.0 0.00 0.00 0.00 12 1010.1
20260509220518 96 0.0 3.0 0.00 0.00 0.00 12 1010.1
20260509220017 97 180 1.0 5.0 0.00 0.00 0.00 12 1010.2
20260509215521 96 0.0 1.0 0.00 0.00 0.00 12 1010.2
20260509215017 96 0.0 0.0 0.00 0.00 0.00 11 1010.3
20260509214518 97 180 1.0 4.0 0.00 0.00 0.00 11 1010.4
20260509214019 97 180 1.0 4.0 0.00 0.00 0.00 10 1010.4
20260509213532 97 0.0 2.0 0.00 0.00 0.00 11 1010.4
20260509213018 97 0.0 2.0 0.00 0.00 0.00 11 1010.5
20260509212518 97 113 1.0 3.0 0.00 0.00 0.00 11 1010.6
20260509212031 97 0.0 0.0 0.00 0.00 0.00 11 1010.6
20260509211518 96 0.0 0.0 0.00 0.00 0.00 13 1010.7
20260509211017 96 0.0 2.0 0.00 0.00 0.00 11 1010.7
20260509210517 96 0.0 2.0 0.00 0.00 0.00 12 1010.8
20260509210017 96 0.0 4.0 0.00 0.00 0.00 13 1010.9
20260509205517 96 180 1.0 4.0 0.00 0.00 0.00 12 1011.0
20260509205017 95 135 2.0 11.0 0.00 0.00 0.00 12 1010.9
20260509204518 96 135 2.0 11.0 0.00 0.00 0.00 11 1011.0
20260509204017 96 203 1.0 3.0 0.00 0.00 0.00 12 1011.2
20260509203518 96 135 1.0 4.0 0.00 0.00 0.00 12 1011.3
20260509203018 95 0.0 1.0 0.00 0.00 0.00 13 1011.4
20260509202518 95 0.0 3.0 0.00 0.00 0.00 13 1011.3
20260509202018 95 158 2.0 7.0 0.00 0.00 0.00 13 1011.6
20260509201517 94 0.0 2.0 0.00 0.00 0.00 14 1011.5
20260509201018 92 45 3.0 10.0 0.00 0.00 0.00 13 1011.5
20260509200517 93 0.0 5.0 0.00 0.00 0.00 13 1011.7
20260509200017 92 45 1.0 9.0 0.00 0.00 0.00 13 1011.6
20260509195518 93 0.0 0.0 0.00 0.00 0.00 13 1011.8
20260509195018 94 0.0 0.0 0.00 0.00 0.00 13 1011.9
20260509194517 94 0.0 0.0 0.00 0.00 0.00 13 1012.0
20260509194018 94 0.0 0.0 0.00 0.00 0.00 12 1012.1
20260509193517 94 0.0 1.0 0.00 0.00 0.00 14 1012.1
20260509193018 93 0.0 0.0 0.00 0.00 0.00 15 1012.1
20260509192518 94 0.0 0.0 0.00 0.00 0.00 15 1012.3
20260509192018 93 0.0 0.0 0.00 0.00 0.00 15 1012.3
20260509191517 93 0.0 0.0 0.00 0.00 0.00 15 1012.3
20260509191018 94 0.0 0.0 0.00 0.00 0.00 14 1012.5
20260509190517 94 0.0 0.0 0.00 0.00 0.00 14 1012.6
20260509190017 94 0.0 0.0 0.00 0.00 0.00 14 1012.7
20260509185518 94 0.0 0.0 0.00 0.00 0.00 14 1012.7
20260509185017 95 0.0 0.0 0.00 0.00 0.00 14 1012.9
20260509184517 94 0.0 0.0 0.00 0.00 0.00 15 1012.8
20260509184018 93 0.0 0.0 0.00 0.00 0.00 15 1013.0
20260509183517 93 0.0 0.0 0.00 0.00 0.00 16 1013.0
20260509183017 92 0.0 0.0 0.00 0.00 0.00 16 1013.1
20260509182518 91 0.0 0.0 0.00 0.00 0.00 15 1012.9
20260509182020 92 0.0 0.0 0.00 0.00 0.00 17 1013.4
20260509181517 92 0.0 0.0 0.00 0.00 0.00 16 1013.4
20260509181017 93 0.0 0.0 0.00 0.00 0.00 16 1013.6
20260509180521 92 0.0 0.0 0.00 0.00 0.00 17 1013.7
20260509180018 92 0.0 0.0 0.00 0.00 0.00 17 1013.5
20260509175517 90 0.0 0.0 0.00 0.00 0.00 17 1013.6
20260509175018 90 293 1.0 8.0 0.00 0.00 0.00 18 1013.7
20260509174517 90 0.0 0.0 0.00 0.00 0.00 18 1013.5
20260509174017 88 0.0 0.0 0.00 0.00 0.00 18 1013.7
20260509173521 89 0.0 0.0 0.00 0.00 0.00 19 1013.7
20260509173018 89 0.0 0.0 0.00 0.00 0.00 19 1013.8
20260509172517 88 0.0 0.0 0.00 0.00 0.00 19 1014.0
20260509172017 88 0.0 0.0 0.00 0.00 0.00 19 1014.0
20260509171517 88 0.0 0.0 0.00 0.00 0.00 19 1014.0
20260509171018 87 0.0 0.0 0.00 0.00 0.00 19 1014.1
20260509170517 87 0.0 0.0 0.00 0.00 0.00 19 1014.1
20260509170018 87 0.0 0.0 0.00 0.00 0.00 21 1014.2
20260509165517 87 0.0 4.0 0.00 0.00 0.00 20 1014.2
20260509165017 87 0.0 0.0 0.00 0.00 0.00 20 1014.3
20260509164517 87 0.0 0.0 0.00 0.00 0.00 21 1014.3
20260509164018 88 0.0 0.0 0.00 0.00 0.00 20 1014.7
20260509163518 88 0.0 0.0 0.00 0.00 0.00 22 1014.5
20260509163017 87 0.0 0.0 0.00 0.00 0.00 21 1014.4
20260509162518 86 0.0 0.0 0.00 0.00 0.00 21 1014.4
20260509162018 85 0.0 0.0 0.00 0.00 0.00 22 1014.3
20260509161518 86 0.0 0.0 0.00 0.00 0.00 22 1014.5
20260509161020 86 0.0 0.0 0.00 0.00 0.00 22 1014.6
20260509160517 85 0.0 0.0 0.00 0.00 0.00 22 1014.6
20260509160017 85 0.0 0.0 0.00 0.00 0.00 22 1014.6
20260509155518 85 0.0 0.0 0.00 0.00 0.00 22 1014.6
20260509155017 85 0.0 0.0 0.00 0.00 0.00 22 1014.8
20260509154517 85 0.0 0.0 0.00 0.00 0.00 23 1014.7
20260509154017 84 0.0 0.0 0.00 0.00 0.00 24 1014.7
20260509153517 83 0.0 0.0 0.00 0.00 0.00 25 1014.9
20260509153017 83 0.0 0.0 0.00 0.00 0.00 26 1014.9
20260509152517 83 0.0 0.0 0.00 0.00 0.00 26 1014.9
20260509152017 82 0.0 0.0 0.00 0.00 0.00 28 1014.7
20260509151517 82 0.0 0.0 0.00 0.00 0.00 28 1014.7
20260509151017 82 0.0 0.0 0.00 0.00 0.00 29 1014.9
20260509150517 82 0.0 0.0 0.00 0.00 0.00 29 1014.9
20260509150017 81 0.0 0.0 0.00 0.00 0.00 31 1014.9
20260509145517 81 0.0 0.0 0.00 0.00 0.00 31 1014.9
20260509145017 81 0.0 0.0 0.00 0.00 0.00 31 1015.0
20260509144517 81 0.0 0.0 0.00 0.00 0.00 31 1014.9
20260509144017 80 0.0 0.0 0.00 0.00 0.00 33 1015.1
20260509143517 79 0.0 0.0 0.00 0.00 0.00 35 1015.1
20260509143017 78 0.0 0.0 0.00 0.00 0.00 35 1015.0